When you browse on this site, cookies collect data to enhance your experience and personalize the content and advertising you see.
Visit our Privacy Policy to learn more. By continuing to use the site, you agree to this use of cookies and data.
  • în România
  • Lista ţărilor
  • Pe 7 zile
  • Temperatura apei
  • Hartă satelitară
  • Meteo pe hartă
  • Widget-uri
  • user-avatar
    Intrare

    Meteo pe oră la Seondha

    Astăzi, 22 Februarie, Vineri

    Timp Temperatura Precipitaţii Vânt Presiune Umiditate
    00:00 +23°C° 0 mm 1 m/s 747 mmHg 69%
    01:00 +23°C° 0 mm 1 m/s 746 mmHg 69%
    02:00 +21°C° 0 mm 0 m/s 746 mmHg 70%
    03:00 +21°C° 0 mm 0 m/s 746 mmHg 71%
    04:00 +22°C° 0 mm 1 m/s 746 mmHg 72%
    05:00 +22°C° 0 mm 1 m/s 746 mmHg 72%
    06:00 +21°C° 0 mm 2 m/s 747 mmHg 71%
    07:00 +23°C° 0 mm 2 m/s 747 mmHg 70%
    08:00 +24°C° 0 mm 3 m/s 747 mmHg 68%
    09:00 +25°C° 0 mm 3 m/s 748 mmHg 62%
    10:00 +27°C° 0 mm 3 m/s 748 mmHg 56%
    11:00 +29°C° 0 mm 3 m/s 748 mmHg 50%
    12:00 +30°C° 0 mm 3 m/s 748 mmHg 46%
    13:00 +32°C° 0 mm 4 m/s 747 mmHg 43%
    14:00 +33°C° 0 mm 4 m/s 747 mmHg 39%
    15:00 +32°C° 0 mm 4 m/s 746 mmHg 42%
    16:00 +30°C° 0 mm 4 m/s 746 mmHg 46%
    17:00 +29°C° 0 mm 3 m/s 746 mmHg 49%
    18:00 +27°C° 0 mm 3 m/s 746 mmHg 53%
    19:00 +26°C° 0 mm 3 m/s 747 mmHg 57%
    20:00 +24°C° 0 mm 3 m/s 747 mmHg 61%
    21:00 +24°C° 0 mm 3 m/s 748 mmHg 64%
    22:00 +22°C° 0 mm 3 m/s 748 mmHg 67%
    23:00 +21°C° 0 mm 3 m/s 748 mmHg 70%

    Mâine, 23 Februarie, Sâmbătă

    Timp Temperatura Precipitaţii Vânt Presiune Umiditate
    00:00 +21°C° 0 mm 4 m/s 748 mmHg 67%
    01:00 +20°C° 0 mm 4 m/s 748 mmHg 64%
    02:00 +19°C° 0 mm 4 m/s 747 mmHg 61%
    03:00 +18°C° 0 mm 4 m/s 747 mmHg 61%
    04:00 +18°C° 0 mm 4 m/s 747 mmHg 62%
    05:00 +17°C° 0 mm 3 m/s 747 mmHg 63%
    06:00 +17°C° 0 mm 4 m/s 747 mmHg 60%
    07:00 +18°C° 0 mm 4 m/s 748 mmHg 57%
    08:00 +18°C° 0 mm 4 m/s 748 mmHg 54%
    09:00 +20°C° 0 mm 4 m/s 748 mmHg 46%
    10:00 +23°C° 0 mm 4 m/s 748 mmHg 38%
    11:00 +26°C° 0 mm 4 m/s 748 mmHg 30%
    12:00 +26°C° 0 mm 4 m/s 747 mmHg 28%
    13:00 +27°C° 0 mm 5 m/s 746 mmHg 26%
    14:00 +28°C° 0 mm 5 m/s 746 mmHg 24%
    15:00 +27°C° 0 mm 4 m/s 745 mmHg 26%
    16:00 +26°C° 0 mm 4 m/s 745 mmHg 29%
    17:00 +25°C° 0 mm 3 m/s 745 mmHg 31%
    18:00 +24°C° 0 mm 2 m/s 745 mmHg 32%
    19:00 +23°C° 0 mm 2 m/s 746 mmHg 33%
    20:00 +21°C° 0 mm 1 m/s 746 mmHg 34%
    21:00 +20°C° 0 mm 2 m/s 746 mmHg 36%
    22:00 +20°C° 0 mm 2 m/s 746 mmHg 38%
    23:00 +19°C° 0 mm 2 m/s 746 mmHg 41%

    Poimâine, 24 Februarie, Duminică

    Timp Temperatura Precipitaţii Vânt Presiune Umiditate
    00:00 +19°C° 0 mm 2 m/s 746 mmHg 41%
    01:00 +19°C° 0 mm 2 m/s 746 mmHg 42%
    02:00 +18°C° 0 mm 2 m/s 745 mmHg 43%
    03:00 +18°C° 0 mm 2 m/s 745 mmHg 45%
    04:00 +17°C° 0 mm 2 m/s 745 mmHg 46%
    05:00 +17°C° 0 mm 2 m/s 745 mmHg 47%
    06:00 +17°C° 0 mm 2 m/s 746 mmHg 47%
    07:00 +18°C° 0 mm 2 m/s 746 mmHg 47%
    08:00 +19°C° 0 mm 2 m/s 747 mmHg 47%
    09:00 +21°C° 0 mm 2 m/s 747 mmHg 40%
    10:00 +24°C° 0 mm 2 m/s 747 mmHg 34%
    11:00 +26°C° 0 mm 2 m/s 747 mmHg 28%
    12:00 +27°C° 0 mm 3 m/s 746 mmHg 25%
    13:00 +28°C° 0 mm 3 m/s 745 mmHg 23%
    14:00 +29°C° 0 mm 3 m/s 744 mmHg 21%
    15:00 +28°C° 0 mm 3 m/s 744 mmHg 24%
    16:00 +27°C° 0 mm 2 m/s 744 mmHg 26%
    17:00 +26°C° 0 mm 2 m/s 743 mmHg 29%
    18:00 +25°C° 0 mm 2 m/s 744 mmHg 31%
    19:00 +22°C° 0 mm 3 m/s 745 mmHg 33%
    20:00 +20°C° 0 mm 3 m/s 745 mmHg 35%
    21:00 +19°C° 0 mm 3 m/s 745 mmHg 41%
    22:00 +18°C° 0 mm 3 m/s 745 mmHg 46%
    23:00 +18°C° 0 mm 2 m/s 745 mmHg 51%

    25 Februarie, Luni

    Timp Temperatura Precipitaţii Vânt Presiune Umiditate
    00:00 +17°C° 0 mm 2 m/s 745 mmHg 51%
    01:00 +17°C° 0 mm 2 m/s 744 mmHg 52%
    02:00 +16°C° 0 mm 1 m/s 744 mmHg 52%
    03:00 +16°C° 0 mm 1 m/s 744 mmHg 52%
    04:00 +15°C° 0 mm 1 m/s 744 mmHg 53%
    05:00 +14°C° 0 mm 0 m/s 744 mmHg 53%
    06:00 +15°C° 0 mm 0 m/s 745 mmHg 51%
    07:00 +16°C° 0 mm 0 m/s 745 mmHg 48%
    08:00 +17°C° 0 mm 0 m/s 746 mmHg 46%
    09:00 +20°C° 0 mm 0 m/s 746 mmHg 40%
    10:00 +22°C° 0 mm 0 m/s 746 mmHg 35%
    11:00 +26°C° 0 mm 1 m/s 746 mmHg 30%
    12:00 +27°C° 0 mm 1 m/s 745 mmHg 27%
    13:00 +28°C° 0 mm 1 m/s 744 mmHg 24%
    14:00 +30°C° 0 mm 1 m/s 743 mmHg 21%
    15:00 +29°C° 0 mm 2 m/s 742 mmHg 24%
    16:00 +28°C° 0 mm 2 m/s 742 mmHg 26%
    17:00 +27°C° 0 mm 2 m/s 742 mmHg 29%
    18:00 +26°C° 0 mm 3 m/s 742 mmHg 30%
    19:00 +24°C° 0 mm 3 m/s 743 mmHg 32%
    20:00 +21°C° 0 mm 3 m/s 743 mmHg 34%
    21:00 +21°C° 0 mm 3 m/s 743 mmHg 39%
    22:00 +20°C° 0 mm 3 m/s 743 mmHg 43%
    23:00 +19°C° 0 mm 3 m/s 743 mmHg 47%

    26 Februarie, Marţi

    Timp Temperatura Precipitaţii Vânt Presiune Umiditate
    00:00 +18°C° 0 mm 3 m/s 743 mmHg 50%
    01:00 +18°C° 0 mm 3 m/s 742 mmHg 54%
    02:00 +17°C° 0 mm 2 m/s 742 mmHg 58%
    03:00 +17°C° 0 mm 2 m/s 742 mmHg 59%
    04:00 +16°C° 0 mm 3 m/s 742 mmHg 61%
    05:00 +16°C° 0 mm 3 m/s 742 mmHg 63%
    06:00 +17°C° 0 mm 4 m/s 742 mmHg 61%
    07:00 +18°C° 0 mm 4 m/s 743 mmHg 60%
    08:00 +17°C° 0 mm 5 m/s 743 mmHg 58%
    09:00 +21°C° 0 mm 5 m/s 743 mmHg 52%
    10:00 +23°C° 0 mm 4 m/s 742 mmHg 45%
    11:00 +26°C° 0 mm 4 m/s 742 mmHg 38%
    12:00 +26°C° 0.2 mm 5 m/s 741 mmHg 40%
    13:00 +26°C° 0.2 mm 6 m/s 740 mmHg 42%
    14:00 +24°C° 0.2 mm 6 m/s 740 mmHg 44%
    15:00 +25°C° 0 mm 5 m/s 739 mmHg 50%
    16:00 +23°C° 0 mm 4 m/s 739 mmHg 56%
    17:00 +22°C° 0 mm 3 m/s 739 mmHg 63%
    18:00 +21°C° 0.1 mm 3 m/s 739 mmHg 69%
    19:00 +19°C° 0.1 mm 3 m/s 740 mmHg 75%
    20:00 +18°C° 0.1 mm 4 m/s 740 mmHg 81%
    21:00 +18°C° 0.9 mm 3 m/s 740 mmHg 84%
    22:00 +17°C° 0.9 mm 3 m/s 741 mmHg 86%
    23:00 +17°C° 0.9 mm 3 m/s 741 mmHg 88%

    27 Februarie, Miercuri

    Timp Temperatura Precipitaţii Vânt Presiune Umiditate
    00:00 +15°C° 0.1 mm 4 m/s 740 mmHg 87%
    01:00 +15°C° 0.1 mm 4 m/s 740 mmHg 86%
    02:00 +14°C° 0.1 mm 4 m/s 739 mmHg 85%
    03:00 +14°C° 1.1 mm 4 m/s 739 mmHg 86%
    04:00 +14°C° 1.1 mm 4 m/s 740 mmHg 86%
    05:00 +14°C° 1.1 mm 4 m/s 740 mmHg 87%
    06:00 +15°C° 0.3 mm 4 m/s 741 mmHg 86%
    07:00 +15°C° 0.3 mm 4 m/s 742 mmHg 84%
    08:00 +17°C° 0.3 mm 4 m/s 742 mmHg 83%
    09:00 +18°C° 0.1 mm 4 m/s 743 mmHg 71%
    10:00 +20°C° 0.1 mm 5 m/s 743 mmHg 59%
    11:00 +22°C° 0.1 mm 5 m/s 743 mmHg 47%
    12:00 +23°C° 0 mm 6 m/s 743 mmHg 44%
    13:00 +23°C° 0 mm 6 m/s 742 mmHg 40%
    14:00 +23°C° 0 mm 7 m/s 742 mmHg 36%
    15:00 +23°C° 0 mm 6 m/s 742 mmHg 38%
    16:00 +22°C° 0 mm 5 m/s 742 mmHg 39%
    17:00 +21°C° 0 mm 4 m/s 742 mmHg 40%
    18:00 +20°C° 0 mm 3 m/s 743 mmHg 41%
    19:00 +19°C° 0 mm 3 m/s 744 mmHg 41%
    20:00 +18°C° 0 mm 2 m/s 744 mmHg 42%
    21:00 +17°C° 0 mm 2 m/s 745 mmHg 47%
    22:00 +16°C° 0 mm 3 m/s 745 mmHg 51%
    23:00 +14°C° 0 mm 3 m/s 745 mmHg 56%
    Arată mai mult